QPF
0.07 0.06 0.05 0.05 0.05 0.05 0.05 0.05 0.06 0.06 0.04 0.03 0.02 0.02 0.01 0.01 0.01 0.00 0.00 0.00 0.00 0.00 0.01 0.01 0.01 0.01 0.01 0.02 0.02 0.03 0.06 0.06 0.05 0.05 0.05 0.06 0.07 0.08
0.06 0.05 0.05 0.04 0.05 0.06 0.06 0.05 0.05 0.05 0.04 0.02 0.01 0.01 0.01 0.01 0.00 0.00 0.00 0.00 0.01 0.01 0.01 0.01 0.01 0.01 0.01 0.01 0.01 0.02 0.05 0.06 0.06 0.05 0.05 0.06 0.07 0.07
0.05 0.06 0.05 0.05 0.05 0.06 0.06 0.06 0.05 0.04 0.04 0.02 0.01 0.01 0.01 0.00 0.00 0.00 0.00 0.00 0.01 0.01 0.01 0.01 0.02 0.01 0.01 0.01 0.01 0.02 0.03 0.06 0.06 0.06 0.06 0.06 0.06 0.07
0.04 0.05 0.05 0.05 0.05 0.06 0.06 0.06 0.05 0.04 0.04 0.02 0.01 0.00 0.00 0.00 0.00 0.00 0.00 0.01 0.01 0.01 0.01 0.02 0.02 0.02 0.02 0.01 0.01 0.01 0.01 0.03 0.06 0.06 0.05 0.05 0.05 0.06
0.03 0.05 0.06 0.05 0.06 0.06 0.06 0.05 0.05 0.04 0.03 0.03 0.02 0.01 0.01 0.01 0.01 0.01 0.01 0.01 0.01 0.01 0.01 0.02 0.03 0.03 0.03 0.02 0.01 0.01 0.01 0.02 0.05 0.06 0.04 0.04 0.04 0.06
0.02 0.04 0.05 0.05 0.05 0.05 0.06 0.06 0.05 0.04 0.04 0.04 0.03 0.02 0.02 0.01 0.01 0.01 0.01 0.01 0.01 0.01 0.01 0.02 0.03 0.03 0.02 0.02 0.03 0.02 0.02 0.03 0.04 0.05 0.05 0.03 0.03 0.05
0.03 0.03 0.04 0.06 0.05 0.05 0.05 0.05 0.05 0.05 0.05 0.04 0.03 0.03 0.02 0.01 0.01 0.01 0.01 0.01 0.01 0.01 0.02 0.02 0.02 0.01 0.01 0.01 0.04 0.04 0.03 0.04 0.05 0.05 0.05 0.05 0.03 0.03
0.03 0.03 0.03 0.04 0.04 0.05 0.05 0.04 0.04 0.05 0.04 0.04 0.04 0.03 0.02 0.01 0.01 0.01 0.01 0.02 0.02 0.01 0.02 0.02 0.02 0.02 0.01 0.01 0.03 0.04 0.04 0.05 0.06 0.06 0.05 0.04 0.04 0.03
0.03 0.03 0.03 0.03 0.03 0.03 0.03 0.04 0.03 0.03 0.04 0.04 0.03 0.02 0.02 0.01 0.01 0.01 0.01 0.02 0.02 0.01 0.02 0.02 0.03 0.03 0.02 0.01 0.02 0.02 0.04 0.06 0.07 0.07 0.06 0.04 0.04 0.04
0.03 0.04 0.04 0.04 0.03 0.03 0.03 0.03 0.03 0.03 0.04 0.03 0.03 0.02 0.02 0.01 0.01 0.02 0.02 0.02 0.01 0.01 0.02 0.03 0.03 0.03 0.03 0.03 0.03 0.03 0.05 0.07 0.07 0.08 0.06 0.03 0.03 0.03
0.04 0.04 0.04 0.04 0.04 0.04 0.04 0.04 0.04 0.04 0.03 0.03 0.02 0.02 0.02 0.02 0.02 0.02 0.02 0.02 0.02 0.02 0.02 0.03 0.04 0.04 0.04 0.04 0.03 0.04 0.05 0.06 0.06 0.06 0.04 0.03 0.03 0.02
0.03 0.03 0.03 0.03 0.03 0.03 0.04 0.05 0.05 0.04 0.03 0.02 0.02 0.02 0.01 0.01 0.02 0.02 0.03 0.03 0.03 0.04 0.03 0.04 0.04 0.04 0.04 0.04 0.03 0.04 0.03 0.03 0.04 0.04 0.03 0.04 0.04 0.02
0.02 0.02 0.02 0.02 0.02 0.02 0.03 0.04 0.04 0.04 0.03 0.03 0.02 0.02 0.02 0.02 0.02 0.02 0.03 0.04 0.04 0.04 0.04 0.04 0.04 0.04 0.04 0.04 0.03 0.03 0.03 0.03 0.03 0.03 0.03 0.04 0.05 0.04
0.03 0.02 0.02 0.02 0.02 0.02 0.02 0.03 0.04 0.04 0.03 0.03 0.02 0.03 0.03 0.02 0.02 0.02 0.02 0.03 0.03 0.04 0.04 0.05 0.05 0.05 0.05 0.04 0.03 0.03 0.03 0.04 0.03 0.03 0.03 0.04 0.04 0.05
0.03 0.03 0.02 0.02 0.02 0.02 0.02 0.02 0.03 0.04 0.04 0.03 0.03 0.02 0.02 0.02 0.02 0.02 0.02 0.02 0.02 0.03 0.03 0.04 0.04 0.04 0.05 0.05 0.03 0.03 0.03 0.04 0.03 0.03 0.03 0.04 0.04 0.04
0.03 0.03 0.03 0.03 0.03 0.03 0.03 0.02 0.03 0.04 0.04 0.03 0.03 0.02 0.01 0.01 0.02 0.02 0.02 0.02 0.02 0.03 0.03 0.03 0.03 0.03 0.03 0.04 0.03 0.03 0.03 0.04 0.04 0.03 0.04 0.04 0.03 0.04
0.04 0.03 0.03 0.03 0.03 0.03 0.03 0.03 0.03 0.04 0.03 0.03 0.02 0.01 0.01 0.01 0.02 0.02 0.02 0.03 0.03 0.03 0.03 0.03 0.03 0.03 0.03 0.04 0.04 0.03 0.03 0.03 0.03 0.03 0.03 0.04 0.04 0.04
0.04 0.04 0.03 0.03 0.03 0.04 0.04 0.04 0.03 0.03 0.03 0.03 0.02 0.02 0.02 0.01 0.02 0.02 0.02 0.02 0.03 0.03 0.03 0.03 0.03 0.03 0.03 0.04 0.04 0.03 0.02 0.03 0.03 0.03 0.03 0.04 0.04 0.04
0.04 0.04 0.03 0.04 0.04 0.04 0.05 0.04 0.03 0.03 0.03 0.03 0.02 0.02 0.02 0.02 0.02 0.02 0.02 0.02 0.02 0.02 0.03 0.03 0.04 0.04 0.04 0.04 0.04 0.03 0.02 0.02 0.03 0.03 0.03 0.03 0.04 0.05
0.03 0.04 0.04 0.04 0.05 0.05 0.06 0.05 0.04 0.04 0.04 0.03 0.03 0.02 0.02 0.02 0.02 0.02 0.02 0.02 0.02 0.02 0.03 0.04 0.04 0.05 0.05 0.05 0.04 0.03 0.03 0.03 0.03 0.04 0.03 0.03 0.04 0.05
0.03 0.03 0.04 0.05 0.05 0.05 0.06 0.06 0.05 0.05 0.05 0.04 0.03 0.03 0.02 0.02 0.02 0.02 0.02 0.02 0.02 0.03 0.03 0.04 0.04 0.04 0.04 0.04 0.05 0.05 0.04 0.04 0.04 0.04 0.04 0.04 0.04 0.04
0.03 0.03 0.04 0.05 0.06 0.06 0.06 0.06 0.05 0.04 0.05 0.04 0.04 0.03 0.03 0.02 0.02 0.02 0.03 0.03 0.03 0.03 0.03 0.03 0.03 0.03 0.04 0.05 0.05 0.05 0.04 0.05 0.05 0.05 0.05 0.05 0.05 0.06
0.03 0.03 0.04 0.04 0.05 0.05 0.05 0.05 0.04 0.04 0.04 0.03 0.03 0.03 0.03 0.03 0.03 0.03 0.03 0.03 0.03 0.03 0.03 0.03 0.03 0.03 0.04 0.04 0.04 0.04 0.04 0.05 0.05 0.05 0.06 0.05 0.05 0.06
MSLP
1006.65 1005.82 1004.98 1004.18 1003.52 1003.07 1002.89 1003.05 1003.55 1004.38 1005.49 1006.78 1008.16 1009.53 1010.80 1011.90 1012.82 1013.55 1014.12 1014.60 1015.02 1015.44 1015.88 1016.34 1016.81 1017.25 1017.63 1017.89 1018.02 1018.01 1017.85 1017.56 1017.17 1016.70 1016.16 1015.57 1014.94 1014.26
1005.19 1004.12 1003.08 1002.14 1001.39 1000.93 1000.83 1001.12 1001.82 1002.88 1004.24 1005.80 1007.43 1009.01 1010.46 1011.70 1012.71 1013.50 1014.10 1014.58 1015.00 1015.40 1015.83 1016.30 1016.78 1017.24 1017.65 1017.96 1018.15 1018.19 1018.09 1017.86 1017.52 1017.10 1016.62 1016.08 1015.49 1014.85
1003.88 1002.59 1001.37 1000.30 999.49 999.04 999.01 999.44 1000.31 1001.59 1003.18 1004.97 1006.81 1008.59 1010.20 1011.56 1012.66 1013.50 1014.14 1014.63 1015.04 1015.43 1015.85 1016.30 1016.78 1017.25 1017.68 1018.02 1018.25 1018.34 1018.30 1018.13 1017.86 1017.51 1017.08 1016.60 1016.06 1015.47
1002.95 1001.50 1000.14 998.98 998.13 997.69 997.72 998.25 999.25 1000.69 1002.44 1004.38 1006.38 1008.29 1010.01 1011.47 1012.64 1013.53 1014.20 1014.70 1015.11 1015.50 1015.91 1016.36 1016.83 1017.30 1017.74 1018.10 1018.36 1018.49 1018.50 1018.39 1018.18 1017.89 1017.53 1017.11 1016.63 1016.08
1002.56 1001.02 999.60 998.40 997.52 997.09 997.15 997.72 998.78 1000.28 1002.09 1004.09 1006.14 1008.10 1009.87 1011.37 1012.58 1013.52 1014.22 1014.75 1015.19 1015.60 1016.02 1016.46 1016.93 1017.40 1017.84 1018.21 1018.48 1018.64 1018.68 1018.62 1018.47 1018.24 1017.95 1017.59 1017.17 1016.68
1002.78 1001.24 999.81 998.61 997.74 997.30 997.34 997.89 998.92 1000.36 1002.11 1004.05 1006.05 1007.96 1009.70 1011.20 1012.42 1013.39 1014.14 1014.72 1015.21 1015.66 1016.11 1016.58 1017.06 1017.53 1017.97 1018.34 1018.62 1018.79 1018.86 1018.84 1018.73 1018.56 1018.32 1018.02 1017.66 1017.24
1003.53 1002.06 1000.70 999.54 998.68 998.22 998.21 998.66 999.56 1000.84 1002.42 1004.18 1006.02 1007.80 1009.44 1010.88 1012.09 1013.08 1013.88 1014.55 1015.12 1015.64 1016.16 1016.67 1017.18 1017.67 1018.11 1018.48 1018.76 1018.94 1019.03 1019.03 1018.96 1018.84 1018.65 1018.42 1018.12 1017.76
1004.65 1003.32 1002.07 1000.98 1000.15 999.66 999.55 999.85 1000.54 1001.57 1002.88 1004.38 1005.96 1007.53 1009.02 1010.37 1011.54 1012.56 1013.43 1014.19 1014.86 1015.50 1016.10 1016.69 1017.25 1017.76 1018.22 1018.59 1018.87 1019.06 1019.16 1019.19 1019.16 1019.08 1018.95 1018.78 1018.55 1018.25
1005.96 1004.79 1003.68 1002.69 1001.89 1001.36 1001.13 1001.24 1001.67 1002.40 1003.38 1004.55 1005.83 1007.15 1008.44 1009.67 1010.80 1011.84 1012.78 1013.64 1014.45 1015.20 1015.92 1016.59 1017.22 1017.77 1018.25 1018.64 1018.93 1019.13 1019.25 1019.31 1019.32 1019.29 1019.23 1019.12 1018.95 1018.72
1007.24 1006.27 1005.31 1004.42 1003.66 1003.09 1002.74 1002.64 1002.80 1003.21 1003.85 1004.67 1005.62 1006.67 1007.76 1008.86 1009.94 1010.99 1012.00 1012.96 1013.89 1014.77 1015.60 1016.37 1017.06 1017.67 1018.18 1018.58 1018.89 1019.12 1019.27 1019.38 1019.44 1019.47 1019.47 1019.43 1019.34 1019.19
1008.40 1007.59 1006.79 1006.01 1005.30 1004.69 1004.24 1003.95 1003.86 1003.97 1004.28 1004.77 1005.42 1006.21 1007.10 1008.06 1009.08 1010.12 1011.18 1012.23 1013.26 1014.25 1015.18 1016.03 1016.79 1017.44 1017.98 1018.42 1018.76 1019.01 1019.21 1019.37 1019.50 1019.60 1019.68 1019.72 1019.71 1019.63
1009.37 1008.73 1008.06 1007.39 1006.73 1006.12 1005.59 1005.16 1004.86 1004.72 1004.75 1004.96 1005.34 1005.89 1006.59 1007.42 1008.36 1009.37 1010.45 1011.55 1012.64 1013.70 1014.69 1015.60 1016.40 1017.09 1017.66 1018.13 1018.50 1018.81 1019.06 1019.28 1019.48 1019.67 1019.83 1019.96 1020.03 1020.04
1010.21 1009.70 1009.17 1008.60 1008.01 1007.41 1006.83 1006.31 1005.87 1005.54 1005.35 1005.33 1005.49 1005.83 1006.36 1007.05 1007.89 1008.85 1009.90 1011.00 1012.10 1013.18 1014.20 1015.13 1015.95 1016.65 1017.25 1017.74 1018.15 1018.50 1018.82 1019.11 1019.39 1019.66 1019.90 1020.12 1020.28 1020.37
1010.97 1010.58 1010.16 1009.69 1009.18 1008.62 1008.05 1007.48 1006.95 1006.50 1006.16 1005.96 1005.94 1006.11 1006.48 1007.03 1007.75 1008.62 1009.59 1010.63 1011.69 1012.74 1013.73 1014.64 1015.45 1016.16 1016.76 1017.27 1017.72 1018.12 1018.49 1018.85 1019.21 1019.56 1019.89 1020.18 1020.42 1020.59
1011.73 1011.45 1011.13 1010.76 1010.33 1009.83 1009.29 1008.71 1008.15 1007.63 1007.19 1006.88 1006.72 1006.74 1006.95 1007.35 1007.93 1008.66 1009.51 1010.45 1011.42 1012.38 1013.31 1014.17 1014.94 1015.63 1016.23 1016.76 1017.24 1017.68 1018.11 1018.53 1018.95 1019.37 1019.77 1020.14 1020.45 1020.68
1012.52 1012.33 1012.10 1011.82 1011.47 1011.05 1010.55 1010.01 1009.45 1008.90 1008.41 1008.01 1007.74 1007.63 1007.69 1007.94 1008.35 1008.92 1009.62 1010.40 1011.24 1012.09 1012.93 1013.72 1014.44 1015.10 1015.70 1016.24 1016.75 1017.23 1017.70 1018.17 1018.65 1019.12 1019.57 1019.99 1020.36 1020.65
1013.34 1013.23 1013.08 1012.87 1012.60 1012.24 1011.80 1011.31 1010.77 1010.22 1009.70 1009.24 1008.88 1008.65 1008.58 1008.66 1008.90 1009.29 1009.80 1010.42 1011.11 1011.83 1012.56 1013.27 1013.95 1014.59 1015.18 1015.74 1016.27 1016.79 1017.30 1017.81 1018.33 1018.83 1019.32 1019.77 1020.18 1020.52
1014.12 1014.07 1013.98 1013.84 1013.62 1013.32 1012.94 1012.49 1011.99 1011.46 1010.93 1010.43 1009.99 1009.66 1009.45 1009.37 1009.43 1009.64 1009.97 1010.41 1010.95 1011.54 1012.17 1012.82 1013.46 1014.09 1014.69 1015.27 1015.84 1016.39 1016.94 1017.48 1018.02 1018.55 1019.05 1019.53 1019.95 1020.32
1014.80 1014.79 1014.74 1014.63 1014.46 1014.21 1013.88 1013.47 1013.00 1012.49 1011.96 1011.43 1010.94 1010.51 1010.17 1009.94 1009.84 1009.87 1010.03 1010.31 1010.70 1011.18 1011.73 1012.33 1012.95 1013.59 1014.22 1014.84 1015.45 1016.04 1016.62 1017.19 1017.75 1018.29 1018.80 1019.29 1019.73 1020.12
1015.30 1015.30 1015.27 1015.18 1015.03 1014.81 1014.52 1014.16 1013.73 1013.25 1012.72 1012.17 1011.63 1011.12 1010.68 1010.31 1010.06 1009.93 1009.93 1010.07 1010.34 1010.74 1011.23 1011.80 1012.42 1013.08 1013.75 1014.43 1015.09 1015.73 1016.35 1016.94 1017.52 1018.06 1018.58 1019.07 1019.53 1019.93
1015.57 1015.57 1015.53 1015.44 1015.31 1015.11 1014.86 1014.54 1014.15 1013.69 1013.18 1012.63 1012.05 1011.48 1010.94 1010.46 1010.08 1009.81 1009.68 1009.70 1009.88 1010.20 1010.65 1011.21 1011.85 1012.54 1013.27 1014.00 1014.72 1015.41 1016.07 1016.70 1017.29 1017.85 1018.38 1018.88 1019.34 1019.77
1015.60 1015.58 1015.52 1015.43 1015.30 1015.13 1014.90 1014.62 1014.27 1013.86 1013.37 1012.82 1012.23 1011.61 1011.00 1010.43 1009.93 1009.55 1009.31 1009.22 1009.32 1009.58 1010.00 1010.56 1011.22 1011.96 1012.74 1013.53 1014.31 1015.05 1015.76 1016.41 1017.03 1017.60 1018.14 1018.65 1019.14 1019.60
1015.41 1015.36 1015.28 1015.18 1015.06 1014.90 1014.72 1014.48 1014.18 1013.80 1013.35 1012.82 1012.22 1011.57 1010.90 1010.25 1009.67 1009.19 1008.85 1008.67 1008.69 1008.90 1009.30 1009.85 1010.53 1011.30 1012.13 1012.97 1013.80 1014.60 1015.34 1016.03 1016.66 1017.26 1017.81 1018.35 1018.86 1019.35
Thickness
5514 5513 5512 5512 5510 5509 5507 5505 5502 5503 5507 5507 5506 5505 5502 5501 5500 5499 5499 5498 5498 5498 5498 5497 5496 5496 5495 5495 5494 5494 5494 5493 5493 5493 5494 5494 5495 5495
5503 5503 5503 5502 5501 5500 5498 5496 5494 5492 5495 5498 5495 5495 5493 5491 5489 5489 5489 5489 5489 5489 5489 5488 5487 5486 5485 5485 5485 5485 5484 5484 5484 5484 5485 5485 5484 5485
5494 5494 5494 5493 5492 5491 5488 5486 5485 5482 5483 5486 5484 5484 5482 5481 5480 5480 5480 5480 5480 5479 5479 5479 5478 5477 5477 5476 5476 5476 5476 5476 5475 5476 5476 5476 5476 5476
5485 5484 5484 5484 5483 5481 5479 5478 5476 5474 5473 5475 5475 5474 5473 5472 5472 5471 5471 5471 5471 5471 5471 5471 5470 5469 5468 5468 5468 5468 5468 5467 5467 5467 5467 5467 5468 5468
5475 5475 5475 5475 5474 5472 5470 5469 5467 5466 5464 5464 5465 5464 5464 5463 5462 5463 5463 5462 5463 5463 5463 5463 5462 5461 5461 5461 5461 5460 5460 5459 5460 5460 5459 5459 5459 5459
5466 5466 5466 5466 5465 5463 5462 5460 5458 5456 5454 5454 5454 5454 5453 5452 5452 5453 5454 5454 5454 5455 5455 5455 5454 5453 5453 5453 5454 5453 5452 5452 5452 5452 5452 5451 5451 5452
5456 5456 5456 5457 5456 5456 5455 5452 5450 5449 5447 5447 5447 5446 5445 5444 5444 5444 5444 5445 5446 5447 5447 5446 5446 5446 5446 5446 5446 5446 5446 5446 5446 5445 5446 5445 5445 5446
5447 5448 5448 5448 5447 5448 5447 5446 5444 5443 5441 5440 5439 5438 5438 5436 5436 5436 5435 5436 5438 5439 5437 5438 5438 5438 5439 5439 5440 5440 5440 5441 5441 5440 5441 5440 5440 5440
5438 5439 5439 5439 5438 5438 5438 5437 5436 5436 5435 5434 5432 5432 5431 5430 5429 5429 5428 5428 5430 5430 5428 5430 5430 5430 5431 5432 5433 5434 5435 5435 5435 5435 5436 5435 5435 5435
5428 5429 5429 5429 5429 5429 5429 5428 5427 5427 5426 5426 5426 5426 5425 5424 5423 5422 5422 5422 5422 5421 5420 5420 5422 5422 5424 5425 5426 5428 5428 5429 5429 5430 5430 5431 5430 5430
5419 5419 5420 5420 5421 5421 5421 5420 5420 5419 5419 5419 5419 5418 5419 5418 5417 5416 5415 5415 5415 5415 5412 5411 5412 5413 5415 5418 5419 5420 5421 5422 5423 5424 5425 5425 5425 5424
5410 5410 5411 5411 5413 5412 5411 5411 5411 5411 5410 5411 5410 5410 5410 5410 5410 5409 5409 5408 5407 5407 5407 5404 5404 5404 5407 5411 5412 5413 5414 5415 5416 5417 5418 5419 5419 5418
5400 5401 5402 5403 5403 5404 5403 5403 5404 5403 5402 5402 5401 5402 5402 5402 5402 5402 5403 5403 5401 5401 5401 5399 5398 5397 5397 5401 5405 5406 5407 5408 5410 5411 5412 5413 5414 5414
5391 5391 5393 5394 5394 5395 5395 5396 5396 5395 5394 5394 5394 5395 5395 5395 5396 5396 5397 5397 5397 5396 5395 5394 5393 5392 5392 5393 5396 5400 5401 5403 5404 5405 5406 5408 5409 5410
5381 5382 5384 5385 5386 5386 5387 5387 5387 5386 5386 5386 5386 5387 5388 5389 5389 5391 5392 5392 5393 5392 5392 5391 5390 5389 5388 5389 5390 5393 5395 5398 5399 5400 5401 5403 5404 5405
5372 5373 5374 5376 5377 5378 5378 5378 5378 5378 5378 5378 5380 5381 5382 5383 5384 5385 5386 5387 5388 5387 5387 5387 5386 5386 5386 5386 5387 5388 5390 5392 5394 5395 5396 5398 5400 5401
5364 5365 5366 5366 5368 5369 5370 5371 5371 5371 5372 5373 5374 5376 5377 5378 5379 5380 5381 5382 5382 5382 5382 5382 5382 5383 5383 5383 5384 5385 5386 5388 5390 5390 5392 5394 5396 5397
5357 5357 5358 5358 5359 5361 5362 5363 5364 5365 5366 5368 5369 5370 5371 5373 5374 5375 5376 5376 5377 5377 5377 5377 5377 5380 5381 5382 5381 5382 5383 5385 5386 5387 5388 5389 5392 5393
5349 5349 5350 5350 5351 5353 5354 5355 5357 5359 5360 5362 5363 5364 5365 5367 5369 5370 5371 5371 5372 5372 5372 5372 5373 5374 5377 5379 5379 5379 5380 5381 5382 5383 5384 5385 5387 5389
5340 5341 5342 5343 5344 5345 5347 5349 5351 5352 5354 5356 5357 5359 5360 5362 5364 5365 5365 5366 5367 5367 5368 5369 5369 5370 5371 5372 5373 5375 5377 5378 5379 5380 5380 5381 5382 5384
5333 5334 5335 5336 5337 5339 5341 5343 5345 5346 5348 5350 5352 5353 5355 5357 5359 5360 5361 5362 5363 5363 5363 5364 5365 5367 5367 5368 5369 5372 5374 5376 5376 5376 5376 5376 5377 5378
5325 5327 5328 5329 5331 5333 5335 5337 5338 5341 5343 5345 5347 5349 5350 5352 5354 5355 5357 5357 5358 5358 5358 5359 5361 5362 5363 5365 5366 5367 5369 5372 5373 5373 5374 5374 5373 5373
5319 5320 5322 5323 5325 5327 5329 5331 5334 5336 5338 5340 5342 5344 5346 5348 5349 5351 5352 5353 5354 5354 5354 5355 5356 5357 5358 5360 5361 5363 5364 5366 5367 5368 5369 5370 5371 5371